sat.trackr.live / text

‹ back to catalog

DAQI-1

NORAD 52257 · 2022-039A

PAYLOAD ACTIVE UNKNOWN

§ Identity

Operator
Country
PRC
Launch date
2022-04-15
Launch site
TAISC
Launch vehicle
Mass (kg)
RCS (m²)

External: N2YO · Heavens-Above · Gunter

§ Orbital elements

Epoch: 2026-05-25T03:35:47.783904Z

Period
98.79 min
Inclination
98.1472°
Eccentricity
0.0003396
Mean motion
14.57661827 rev/d
Perigee alt
698.3 km
Apogee alt
703.1 km
Semi-major
7,078.9 km
B*
1.2035e-4
RAAN
84.4794°
Arg perigee
349.9572°
Mean anomaly
10.1559°
Rev number
21,858

§ Raw data

DAQI-11 52257U 22039A   26145.14985861  .00000504  00000+0  12035-3 0  99992 52257  98.1472  84.4794 0003396 349.9572  10.1559 14.57661827218582

JSON: /api/v1/satellites/52257 · /tle

For live sub-satellite position, see the globe view (requires WebGL).

§ Visibility from observer

Set your observer location to see the next 7 days of passes ≥ 10°. The values pass through the URL so the page stays shareable.

No JS? Fill the form by hand. The geolocation button needs JavaScript.

§ Radio — SatNOGS DB

ModeDescriptionDownlinkUplink
FM S-band telemetry 2.236 GHz

1 transmitter · refreshed weekly from db.satnogs.org